GW5159 Weather Reports


time (UTC)temp
C
wind
direction
speed
KPH
gust
KPH
rain 1hr
cm
rain 24hr
cm
rain mn
cm
humidity
%
barometer
mb
20260507060945 -17 348 6.4 11.3 0.00 0.00 0.00 1010.4
20260507060442 -17 320 6.4 9.7 0.00 0.00 0.00 1010.6
20260507055938 -17 336 3.2 9.7 0.00 0.00 0.00 1010.4
20260507055434 -17 276 0.0 3.2 0.00 0.00 0.00 1010.5
20260507054931 -17 353 3.2 4.8 0.00 0.00 0.00 1010.4
20260507054427 -17 321 9.7 12.9 0.00 0.00 0.00 1010.5
20260507053924 -17 323 6.4 9.7 0.00 0.00 0.00 1010.5
20260507053422 -17 322 4.8 9.7 0.00 0.00 0.00 1010.5
20260507052920 -17 317 8.0 9.7 0.00 0.00 0.00 1010.7
20260507052417 -17 340 8.0 14.5 0.00 0.00 0.00 1010.6
20260507051914 -17 345 12.9 16.1 0.00 0.00 0.00 1010.5
20260507051412 -17 309 9.7 25.7 0.00 0.00 0.00 1010.5
20260507050909 -17 317 12.9 14.5 0.00 0.00 0.00 1010.3
20260507050405 -17 299 9.7 17.7 0.00 0.00 0.00 1010.4
20260507045902 -17 312 8.0 17.7 0.00 0.00 0.00 1010.4
20260507045359 -17 348 11.3 17.7 0.00 0.00 0.00 1010.2
20260507044856 -17 306 20.9 24.1 0.00 0.00 0.00 1010.4
20260507044352 -17 316 9.7 17.7 0.00 0.00 0.00 1010.3
20260507043848 -17 303 14.5 20.9 0.00 0.00 0.00 1010.5
20260507043345 -17 308 11.3 14.5 0.00 0.00 0.00 1010.2
20260507042841 -17 317 11.3 14.5 0.00 0.00 0.00 1010.2
20260507042337 -17 305 9.7 11.3 0.00 0.00 0.00 1010.2
20260507041834 -17 330 6.4 11.3 0.00 0.00 0.00 1010.1
20260507041331 -17 335 8.0 14.5 0.00 0.00 0.00 1009.8
20260507040828 -17 339 4.8 9.7 0.00 0.00 0.00 1009.6
20260507040324 -17 307 9.7 11.3 0.00 0.00 0.00 1009.8
20260507035820 -17 358 4.8 12.9 0.00 1.09 1.09 1009.5
20260507035315 -17 230 0.0 1.6 0.00 1.09 1.09 1009.6
20260507034814 -17 266 0.0 1.6 0.00 1.09 1.09 1009.7
20260507034310 -17 97 1.6 1.6 0.00 1.09 1.09 1009.6
20260507033809 -17 98 0.0 0.0 0.00 1.09 1.09 1009.5
20260507033306 -17 98 0.0 0.0 0.00 1.09 1.09 1009.6
20260507032803 -17 98 0.0 0.0 0.00 1.09 1.09 1009.9
20260507032258 -17 98 0.0 0.0 0.00 1.09 1.09 1009.8
20260507031755 -17 98 0.0 0.0 0.00 1.09 1.09 1009.8
20260507031252 -17 98 0.0 0.0 0.00 1.09 1.09 1009.8
20260507030749 -17 98 0.0 0.0 0.00 1.09 1.09 1009.8
20260507030246 -17 53 3.2 3.2 0.00 1.09 1.09 1009.8
20260507025743 -17 303 0.0 0.0 0.00 1.09 1.09 1009.9
20260507025240 -17 302 1.6 1.6 0.00 1.09 1.09 1010.1
20260507024739 -17 281 1.6 4.8 0.00 1.09 1.09 1010.0
20260507024235 -17 257 0.0 0.0 0.00 1.09 1.09 1009.8
20260507023731 -17 257 0.0 0.0 0.00 1.09 1.09 1009.8
20260507023228 -17 90 0.0 0.0 0.00 1.09 1.09 1009.8
20260507022726 -17 48 0.0 1.6 0.00 1.09 1.09 1009.7
20260507022221 -17 303 1.6 1.6 0.00 1.09 1.09 1009.8
20260507021718 -17 189 0.0 1.6 0.00 1.09 1.09 1010.1
20260507021213 -17 109 0.0 0.0 0.00 1.09 1.09 1009.9
20260507020712 -17 109 0.0 0.0 0.00 1.09 1.09 1009.9
20260507020208 -17 108 0.0 0.0 0.00 1.09 1.09 1009.9
20260507015706 -17 129 0.0 0.0 0.00 1.09 1.09 1010.2
20260507015203 -17 114 0.0 1.6 0.00 1.09 1.09 1010.1
20260507014659 -17 188 0.0 0.0 0.00 1.09 1.09 1010.2
20260507014155 -17 237 0.0 1.6 0.00 1.09 1.09 1010.3
20260507013652 -17 250 0.0 0.0 0.00 1.09 1.09 1010.1
20260507013149 -17 310 0.0 0.0 0.00 1.09 1.09 1009.9
20260507012647 -17 310 0.0 0.0 0.00 1.09 1.09 1010.0
20260507012142 -17 310 0.0 0.0 0.00 1.09 1.09 1010.1
20260507011641 -17 310 0.0 0.0 0.00 1.09 1.09 1010.1
20260507011136 -17 310 0.0 0.0 0.00 1.09 1.09 1010.0
20260507010631 -17 310 0.0 1.6 0.00 1.09 1.09 1009.9
20260507010128 -17 310 0.0 1.6 0.00 1.09 1.09 1010.0
20260507005625 -17 307 0.0 1.6 0.00 1.09 1.09 1009.8
20260507005121 -17 296 1.6 3.2 0.00 1.09 1.09 1010.0
20260507004618 -17 279 1.6 3.2 0.00 1.09 1.09 1009.9
20260507004116 -17 297 1.6 1.6 0.00 1.09 1.09 1009.7
20260507003612 -17 313 1.6 3.2 0.00 1.09 1.09 1009.5
20260507003107 -17 305 1.6 1.6 0.00 1.09 1.09 1009.5
20260507002604 -17 311 3.2 4.8 0.00 1.09 1.09 1009.8
20260507002059 -17 308 1.6 3.2 0.00 1.09 1.09 1009.5
20260507001556 -17 249 1.6 4.8 0.00 1.09 1.09 1009.5
20260507001054 -17 319 4.8 4.8 0.00 1.09 1.09 1009.7
20260507000549 -17 324 6.4 6.4 0.00 1.09 1.09 1009.6
20260507000045 -17 297 4.8 6.4 0.00 1.09 1.09 1009.4
20260506235543 -17 347 3.2 4.8 0.00 1.09 1.09 1009.5
20260506235038 -17 318 3.2 6.4 0.00 1.09 1.09 1009.5
20260506234536 -17 318 3.2 4.8 0.00 1.09 1.09 1009.3
20260506234033 -17 290 3.2 6.4 0.00 1.09 1.09 1009.3
20260506233530 -17 272 4.8 9.7 0.00 1.09 1.09 1009.2
20260506233027 -17 273 4.8 4.8 0.00 1.09 1.09 1008.9
20260506232523 -17 266 1.6 3.2 0.00 1.09 1.09 1008.6
20260506232018 -17 270 0.0 1.6 0.00 1.09 1.09 1008.8
20260506231516 -17 266 1.6 1.6 0.00 1.09 1.09 1008.5
20260506231014 -17 286 1.6 3.2 0.00 1.09 1.09 1008.5
20260506230510 -17 246 0.0 1.6 0.00 1.09 1.09 1008.8
20260506230008 -17 309 1.6 3.2 0.00 1.09 1.09 1008.5
20260506225504 -17 305 4.8 6.4 0.00 1.09 1.09 1008.4
20260506225000 -17 326 3.2 6.4 0.00 1.09 1.09 1008.4
20260506224457 -17 294 4.8 4.8 0.00 1.09 1.09 1008.3
20260506223954 -17 294 4.8 6.4 0.00 1.09 1.09 1008.4
20260506223450 -17 317 8.0 11.3 0.00 1.09 1.09 1008.4
20260506222947 -17 291 9.7 11.3 0.00 1.09 1.09 1008.8
20260506222444 -17 312 9.7 11.3 0.00 1.09 1.09 1008.9
20260506221940 -17 315 3.2 4.8 0.00 1.09 1.09 1008.8
20260506221437 -17 311 6.4 6.4 0.00 1.09 1.09 1008.5
20260506220935 -17 278 1.6 3.2 0.00 1.09 1.09 1008.3
20260506220431 -17 306 3.2 4.8 0.00 1.09 1.09 1008.3
20260506215927 -17 328 3.2 4.8 0.00 1.09 1.09 1008.3
20260506215423 -17 309 3.2 4.8 0.00 1.09 1.09 1008.4
20260506214919 -17 321 3.2 4.8 0.00 1.09 1.09 1008.6
20260506214417 -17 347 3.2 11.3 0.00 1.09 1.09 1008.4
20260506213914 -17 316 6.4 11.3 0.00 1.09 1.09 1008.4
20260506213412 -17 329 4.8 4.8 0.00 1.09 1.09 1008.3
20260506212909 -17 320 6.4 6.4 0.00 1.09 1.09 1008.3
20260506212405 -17 295 4.8 6.4 0.00 1.09 1.09 1008.1
20260506211859 -17 322 4.8 12.9 0.00 1.09 1.09 1008.2
20260506211356 -17 309 9.7 14.5 0.00 1.09 1.09 1008.3
20260506210853 -17 317 9.7 14.5 0.00 1.09 1.09 1008.2
20260506210350 -17 317 14.5 16.1 0.00 1.09 1.09 1008.1
20260506205847 -17 331 17.7 20.9 0.00 1.09 1.09 1008.0
20260506205343 -17 306 11.3 16.1 0.00 1.09 1.09 1007.9
20260506204840 -17 331 11.3 14.5 0.00 1.09 1.09 1007.8
20260506204337 -17 342 9.7 14.5 0.00 1.09 1.09 1007.8
20260506203835 -17 298 9.7 16.1 0.00 1.09 1.09 1007.7
20260506203332 -17 314 14.5 17.7 0.00 1.09 1.09 1007.8
20260506202828 -17 322 11.3 17.7 0.00 1.09 1.09 1007.7
20260506202326 -17 326 12.9 20.9 0.00 1.09 1.09 1007.6
20260506201822 -17 314 12.9 20.9 0.00 1.09 1.09 1007.6
20260506201320 -17 324 8.0 14.5 0.00 1.09 1.09 1007.5
20260506200816 -17 299 9.7 16.1 0.00 1.09 1.09 1007.5
20260506200312 -17 298 6.4 16.1 0.00 1.09 1.09 1007.4
20260506195808 -17 339 8.0 9.7 0.00 1.09 1.09 1007.3
20260506195306 -17 324 12.9 17.7 0.00 1.09 1.09 1007.4
20260506194803 -17 332 9.7 17.7 0.00 1.09 1.09 1007.1
20260506194259 -17 342 6.4 11.3 0.00 1.09 1.09 1007.2
20260506193757 -17 339 6.4 14.5 0.00 1.09 1.09 1007.2
20260506193253 -17 330 6.4 16.1 0.00 1.09 1.09 1007.2
20260506192750 -17 312 8.0 16.1 0.00 1.09 1.09 1007.1
20260506192247 -17 347 6.4 12.9 0.13 1.09 1.09 1007.1
20260506191743 -17 315 6.4 6.4 0.13 1.09 1.09 1007.1
20260506191240 -17 5 3.2 6.4 0.00 1.07 1.07 1007.1
20260506190737 -17 312 12.9 20.9 0.00 1.07 1.07 1006.9
20260506190233 -17 324 6.4 16.1 0.00 1.07 1.07 1007.1
20260506185731 -17 327 12.9 16.1 0.00 1.07 1.07 1007.1
20260506185227 -17 312 14.5 17.7 0.00 1.07 1.07 1007.1
20260506184725 -17 333 11.3 12.9 0.00 1.07 1.07 1007.0
20260506184222 -17 329 9.7 14.5 0.00 1.07 1.07 1006.7
20260506183719 -17 307 8.0 14.5 0.00 1.07 1.07 1006.5
20260506183214 -17 348 4.8 12.9 0.00 1.07 1.07 1006.6
20260506182712 -17 300 11.3 17.7 0.00 1.07 1.07 1006.5
20260506182209 -17 331 12.9 16.1 0.00 1.07 1.07 1006.6
20260506181706 -17 318 9.7 16.1 0.00 1.07 1.07 1006.4
20260506181204 -17 322 4.8 11.3 0.00 1.07 1.07 1006.4
20260506180701 -17 314 14.5 16.1 0.00 1.07 1.07 1006.4
20260506180156 -17 310 8.0 14.5 0.00 1.07 1.07 1006.3
20260506175653 -17 320 11.3 16.1 0.00 1.07 1.07 1006.3
20260506175150 -17 307 9.7 12.9 0.00 1.07 1.07 1006.3
20260506174648 -17 320 9.7 14.5 0.18 1.07 1.07 1006.2
20260506174145 -17 302 12.9 16.1 0.18 1.07 1.07 1006.1
20260506173643 -17 299 9.7 14.5 0.00 1.04 1.04 1006.2
20260506173140 -17 326 9.7 14.5 0.00 1.04 1.04 1006.1
20260506172636 -17 342 6.4 9.7 0.00 1.04 1.04 1006.1
20260506172133 -17 315 6.4 11.3 0.00 1.04 1.04 1006.1
20260506171631 -17 297 9.7 9.7 0.00 1.04 1.04 1006.3
20260506171128 -17 312 6.4 9.7 0.00 1.04 1.04 1006.0
20260506170626 -17 305 8.0 9.7 0.00 1.04 1.04 1006.2
20260506170122 -17 317 6.4 9.7 0.00 1.04 1.04 1006.1
20260506165621 -17 285 6.4 9.7 0.00 1.04 1.04 1006.0
20260506165116 -17 325 8.0 9.7 0.00 1.04 1.04 1006.0
20260506164614 -17 305 6.4 9.7 0.00 1.04 1.04 1006.1
20260506164111 -17 336 4.8 4.8 0.00 1.04 1.04 1006.0
20260506163607 -17 314 6.4 9.7 0.00 1.04 1.04 1006.1
20260506163103 -17 318 6.4 11.3 0.00 1.04 1.04 1006.1
20260506162559 -17 312 12.9 14.5 0.00 1.04 1.04 1006.0
20260506162057 -17 329 6.4 12.9 0.00 1.04 1.04 1006.0
20260506161554 -17 323 9.7 12.9 0.00 1.04 1.04 1006.0
20260506161045 -17 327 8.0 11.3 0.00 1.04 1.04 1006.2
20260506160543 -17 304 6.4 9.7 0.00 1.04 1.04 1005.9
20260506160040 -17 308 4.8 9.7 0.00 1.04 1.04 1006.2
20260506155538 -17 319 9.7 11.3 0.00 1.04 1.04 1006.1
20260506153715 -17 305 4.8 9.7 0.00 1.02 1.02 1006.1
20260506153212 -17 323 9.7 11.3 0.00 1.02 1.02 1006.1
20260506152709 -17 329 6.4 9.7 0.00 1.02 1.02 1006.1
20260506152206 -17 301 3.2 4.8 0.18 1.02 1.02 1006.1
20260506151706 -17 263 3.2 4.8 0.18 1.02 1.02 1006.1
20260506151201 -17 254 0.0 1.6 0.00 0.99 0.99 1005.9
20260506150658 -17 277 3.2 4.8 0.00 0.99 0.99 1006.0
20260506150155 -17 313 8.0 9.7 0.13 0.99 0.99 1006.0
20260506145652 -17 325 8.0 11.3 0.13 0.99 0.99 1006.0
20260506145149 -17 288 9.7 11.3 0.00 0.97 0.97 1005.9
20260506144647 -17 320 9.7 12.9 0.00 0.97 0.97 1005.7
20260506144143 -17 298 6.4 9.7 0.00 0.97 0.97 1005.9
20260506143641 -17 326 6.4 9.7 0.00 0.97 0.97 1005.9
20260506143139 -17 321 9.7 11.3 0.18 0.97 0.97 1005.6
20260506142637 -17 297 6.4 6.4 0.18 0.97 0.97 1005.7
20260506142135 -17 326 4.8 9.7 0.00 0.94 0.94 1005.7
20260506141632 -17 316 8.0 9.7 0.00 0.94 0.94 1005.6
20260506141130 -17 319 8.0 9.7 0.13 0.94 0.94 1005.6
20260506140627 -17 312 4.8 6.4 0.13 0.94 0.94 1005.7
20260506140124 -17 319 6.4 9.7 0.00 0.91 0.91 1005.9
20260506135621 -17 317 4.8 11.3 0.18 0.91 0.91 1005.7
20260506135117 -17 326 8.0 9.7 0.18 0.91 0.91 1005.7
20260506134614 -17 310 4.8 9.7 0.00 0.89 0.89 1005.7
20260506134110 -17 313 4.8 11.3 0.18 0.89 0.89 1005.7
20260506133608 -17 307 6.4 6.4 0.18 0.89 0.89 1005.9
20260506133104 -17 306 3.2 4.8 0.13 0.86 0.86 1005.6
20260506132601 -17 324 3.2 6.4 0.13 0.86 0.86 1005.7
20260506132058 -17 302 3.2 3.2 0.18 0.84 0.84 1006.0
20260506131556 -17 298 1.6 3.2 0.13 0.81 0.81 1006.0
20260506131052 -17 306 1.6 3.2 0.30 0.81 0.81 1005.9
20260506130549 -17 270 1.6 1.6 0.30 0.79 0.79 1006.0
20260506130047 -17 262 0.0 0.0 0.18 0.74 0.74 1006.1
20260506125545 -17 286 1.6 3.2 0.30 0.71 0.71 1006.1
20260506125042 -17 321 3.2 4.8 0.43 0.71 0.71 1006.0
20260506124540 -17 305 3.2 3.2 0.13 0.66 0.66 1006.1
20260506124037 -17 284 3.2 3.2 0.18 0.64 0.64 1006.0
20260506123535 -17 298 3.2 6.4 0.30 0.64 0.64 1005.9
20260506123033 -17 313 4.8 6.4 0.13 0.61 0.61 1005.7
20260506122529 -17 318 3.2 4.8 0.18 0.58 0.58 1005.6
20260506122028 -17 309 4.8 4.8 0.36 0.58 0.58 1005.5
20260506121525 -17 272 3.2 4.8 0.30 0.56 0.56 1005.9
20260506121021 -17 273 4.8 6.4 0.30 0.53 0.53 1005.9
20260506120519 -17 279 8.0 9.7 0.18 0.51 0.51 1005.9
20260506120016 -17 329 6.4 6.4 0.13 0.48 0.48 1005.7
20260506115514 -17 326 8.0 11.3 0.13 0.48 0.48 1005.7
20260506115012 -17 321 6.4 9.7 0.18 0.46 0.46 1006.0
20260506114509 -17 310 1.6 3.2 0.18 0.46 0.46 1005.6
20260506114008 -17 320 1.6 3.2 0.00 0.43 0.43 1005.7
20260506113505 -17 314 0.0 3.2 0.13 0.43 0.43 1005.7
20260506113002 -17 146 0.0 0.0 0.13 0.43 0.43 1005.6
20260506112459 -17 181 0.0 1.6 0.18 0.41 0.41 1005.9
20260506111956 -17 150 0.0 0.0 0.30 0.41 0.41 1005.6
20260506111454 -17 66 1.6 3.2 0.30 0.38 0.38 1005.7
20260506110951 -17 44 1.6 1.6 0.18 0.36 0.36 1005.9
20260506110449 -17 100 0.0 0.0 0.13 0.33 0.33 1006.0
20260506105945 -17 100 0.0 0.0 0.13 0.33 0.33 1006.0
20260506105441 -17 100 1.6 3.2 0.00 0.30 0.30 1005.9
20260506104939 -17 193 0.0 3.2 0.18 0.30 0.30 1006.0
20260506104437 -17 158 1.6 1.6 0.18 0.30 0.30 1006.1
20260506103935 -17 215 1.6 3.2 0.18 0.28 0.28 1006.3
20260506103432 -17 172 0.0 0.0 0.18 0.28 0.28 1005.9
20260506102928 -17 147 0.0 0.0 0.13 0.25 0.25 1006.2
20260506102427 -17 169 0.0 0.0 0.30 0.25 0.25 1006.1
20260506101924 -17 157 0.0 0.0 0.30 0.23 0.23 1006.1
20260506101420 -17 219 0.0 0.0 0.13 0.20 0.20 1006.0
20260506100917 -17 246 0.0 0.0 0.00 0.18 0.18 1006.0
20260506100416 -17 224 1.6 3.2 0.18 0.18 0.18 1006.3
20260506095913 -17 261 1.6 3.2 0.00 0.15 0.15 1005.9
20260506095411 -17 325 3.2 4.8 0.13 0.15 0.15 1006.1
20260506094907 -17 285 3.2 3.2 0.13 0.15 0.15 1006.3
20260506094406 -17 303 3.2 4.8 0.00 0.13 0.13 1006.4
20260506093903 -17 340 3.2 6.4 0.00 0.13 0.13 1006.4
20260506093401 -17 12 1.6 3.2 0.18 0.13 0.13 1006.5
20260506092859 -17 283 9.7 11.3 0.18 0.13 0.13 1006.5
20260506092356 -17 336 4.8 11.3 0.00 0.10 0.10 1006.8
20260506091852 -17 340 3.2 9.7 0.13 0.10 0.10 1006.7
20260506091351 -17 332 6.4 6.4 0.13 0.10 0.10 1006.5
20260506090848 -17 307 3.2 4.8 0.00 0.08 0.08 1006.6
20260506090345 -17 65 0.0 3.2 0.18 0.08 0.08 1006.2
20260506085842 -17 209 0.0 1.6 0.18 0.08 0.08 1006.2
20260506085338 -17 309 0.0 0.0 0.00 0.05 0.05 1006.5
20260506084835 -17 309 0.0 1.6 0.13 0.05 0.05 1006.5
20260506084332 -17 308 0.0 0.0 0.13 0.05 0.05 1006.6
20260506083828 -17 305 1.6 1.6 0.13 0.05 0.05 1006.5
20260506083326 -17 313 0.0 1.6 0.00 0.03 0.03 1006.5
20260506082823 -17 304 0.0 0.0 0.00 0.03 0.03 1006.3
20260506082319 -17 310 3.2 3.2 0.18 0.03 0.03 1006.5
20260506081816 -17 291 3.2 4.8 0.18 0.03 0.03 1006.5
20260506081314 -17 183 0.0 0.0 0.00 0.00 0.00 1006.3
20260506080811 -17 183 0.0 1.6 0.00 0.00 0.00 1006.2
20260506080307 -17 153 1.6 3.2 0.00 0.00 0.00 1006.0
20260506073251 -17 240 3.2 3.2 0.00 0.00 0.00 1006.5
20260506072748 -17 167 0.0 0.0 0.00 0.00 0.00 1006.2
20260506072246 -17 166 0.0 0.0 0.00 0.00 0.00 1006.3
20260506071744 -17 161 1.6 1.6 0.00 0.00 0.00 1006.3
20260506071241 -17 148 0.0 1.6 0.00 0.00 0.00 1006.6
20260506070738 -17 171 1.6 1.6 0.00 0.00 0.00 1006.4
20260506070235 -17 139 0.0 0.0 0.00 0.00 0.00 1006.6
20260506062212 -17 251 4.8 4.8 0.00 0.00 0.00 1007.4
20260506061708 -17 115 1.6 3.2 0.00 0.00 0.00 1007.2